Location: Lake Almanor
(40.2485°N, 121.1442°W)
Time: 23:57:47
(UTC-08:00)

STARLINK-1086 - Pass Details

Date: 30 January 2020
Orbit: 348 x 351 km, 53.0° (Epoch: 23 February)

Event Time Altitude Azimuth Distance (km) Brightness Sun altitude
Rises 17:46:07 0° 319° (NW) 2,163 7.0 -5.4°
Reaches altitude 10° 17:48:41 10° 343° (NNW) 1,317 5.6 -5.9°
Maximum altitude 17:50:35 16° 24° (NNE) 1,035 4.7 -6.2°
Drops below altitude 10° 17:52:29 10° 65° (ENE) 1,314 4.9 -6.6°
Enters shadow 17:52:48 - 69° (ENE) 1,399 5.0 -6.6°
